Flag for U.S.A. Weather past 2 weeks in Hialeah, Florida, U.S.A.

Now
82 °F

Clear.


Feels Like: 88 °F
Forecast: 79 / 89 °F
Wind: 6 mph from East

Location: Opa Locka Airport

Current Time: Sep 14, 2014 at 10:46:19 PM

Latest Report: Sep 14, 2014 at 9:53 PM


Visibility: 10 mi

Pressure: 30.14 "Hg

Humidity: 77%

Dew point: 74 °F

Location of HialeahLocation

Historic Weather in Hialeah — Graph

°F

Hialeah temperature yesterday

Maximum temperature yesterday: 87 °F (at 11:53 AM)
Minimum temperature yesterday: 74 °F (at 2:53 AM)
Average temperature yesterday: 79 °F

Past Weeks' High & Low Weather Summary

 TemperatureHumidityPressure
High91 °F (Aug 31, 1:53 PM)100% (Sep 10, 6:53 AM)30.14 "Hg (Sep 10, 6:53 AM)
Low70 °F (Sep 12, 6:53 AM)53% (Sep 1, 5:53 PM)29.94 "Hg (Sep 12, 4:53 PM)
Average82 °F75%30.03 "Hg
* Reported Aug 30 8:53 PM — Sep 14 8:53 PM, Hialeah, Weather by CustomWeather, © 2014

Note: Actual official high and low records may vary slightly from our data, if they occured in-between our weather recording intervals... More about our weather records

Advertising

Hialeah weather history for previous 24 hours

 ConditionsComfort  
Time TempWeatherWind HumidityBarometerVisibility
8:53 PM
Sep 14
82 °FClear.7 mph77%30.12 "Hg10 mi
7:53 PM83 °FSunny.No wind70%30.11 "Hg10 mi
6:53 PM81 °FScattered clouds.8 mph77%30.11 "Hg10 mi
6:00 PM84 °FThundershowers. Broken clouds.7 mph72%30.09 "Hg10 mi
4:53 PM86 °FPassing clouds.9 mph67%30.10 "Hg10 mi
3:53 PM88 °FPassing clouds.12 mph61%30.10 "Hg10 mi
2:53 PM88 °FPassing clouds.14 mph63%30.11 "Hg10 mi
1:53 PM88 °FPartly sunny.9 mph59%30.12 "Hg10 mi
12:53 PM89 °FSunny.10 mph57%30.13 "Hg10 mi
11:53 AM87 °FSunny.5 mph59%30.14 "Hg10 mi
10:53 AM86 °FSunny.8 mph61%30.14 "Hg10 mi
9:53 AM84 °FSunny.9 mph67%30.12 "Hg10 mi
8:53 AM81 °FSunny.5 mph77%30.11 "Hg10 mi
7:53 AM76 °FClear.No wind91%30.09 "Hg10 mi
6:53 AM75 °FClear.No wind90%30.08 "Hg10 mi
5:53 AM75 °FClear.No wind94%30.06 "Hg10 mi
4:53 AM76 °FLight rain. Passing clouds.5 mph91%30.06 "Hg10 mi
3:53 AM76 °FPassing clouds.No wind91%30.07 "Hg10 mi
2:53 AM76 °FMostly cloudy.5 mph91%30.09 "Hg10 mi
1:53 AM76 °FLight rain. Passing clouds.5 mph94%30.11 "Hg10 mi
12:53 AM75 °FPassing clouds.No wind94%30.09 "Hg10 mi
11:53 PM
Sep 13
75 °FClear.No wind90%30.09 "Hg10 mi
10:53 PM75 °FRain. Passing clouds.3 mph90%30.09 "Hg10 mi
10:02 PM74 °FLight rain. Mostly cloudy.5 mph94%30.10 "Hg10 mi
Weather by CustomWeather, © 2014

See weather overviewHow to use our weather pages